Regional Weather Roundup
Issued by NWS Grand Forks, ND

Home | Current Version | Previous Version | Text Only | Print | Product List | Glossary Off
Versions: 1 2 3 4 5 6 7 8 9 10 11 12 13 14 15 16 17 18 19 20 21 22 23 24 25 26 27 28 29 30 31 32 33 34 35 36 37 38 39 40 41 42 43 44 45 46 47 48 49 50

000
ASUS43 KFGF 310710
RWRFGF
PRAIRIE TO PINES  WEATHER ROUNDUP
NATIONAL WEATHER SERVICE EASTERN NORTH DAKOTA/GRAND FORKS ND
200 AM CDT THU JUL 31 2014

 **SATELLITE DATA USED TO AUGMENT SKY COVER AT AUTOMATED STATIONS**
 *****  WEATHER ACROSS EASTERN NORTH DAKOTA  *****

CITY           SKY/WX    TMP DP  RH WIND       PRES   REMARKS
GRAND FORKS    CLEAR     59  56  89 W6        30.03F
GRAND FRKS AFB CLEAR     58  58  99 W2        30.05S
GRAND FRKS NWS   N/A     61 N/A N/A MISG        N/A
DEVILS LAKE    CLEAR     63  57  82 W3        30.07S
FARGO          CLEAR     59  54  83 SW5       30.05S
WAHPETON ARPT  SUNNY     57  52  82 W3        30.06S
$$

 ***** WEATHER ACROSS CENTRAL AND WESTERN NORTH DAKOTA  *****

CITY           SKY/WX    TMP DP  RH WIND       PRES   REMARKS
BISMARCK       CLEAR     62  57  83 NE3       30.11S
MINOT          CLEAR     61  53  75 SW6       30.11R
JAMESTOWN      PTCLDY    59  55  87 N3        30.08F
MINOT AFB      CLEAR     57  56  97 W9        30.10R
GARRISON         N/A     59  57  93 N6        30.11F
WILLISTON      LGT RAIN  68  57  68 E7        30.16S
DICKINSON      CLEAR     58  53  84 S6        30.12F
HETTINGER      CLEAR     55  51  86 CALM      30.14F
$$

 *****  OTHER AIRPORT OBSERVATIONS IN OUR AREA  *****

CITY           SKY/WX    TMP DP  RH WIND       PRES   REMARKS
WALHALLA         N/A     63  63 100 CALM        N/A
GRAFTON AIRPOR FAIR      61  59  94 W6        30.03S
VALLEY CITY AR PTSUNNY   57  57 100 CALM      30.08F
CANDO          FAIR      57  55  94 W5        30.09S
CAVALIER APRT  FAIR      61  55  82 W5        30.03S
GWINNER        SUNNY     59  57  94 W7        30.08F
SHEYENNE NWR     N/A     56  55  95 CALM      29.95
ROLLA          FAIR      57  55  94 W5        30.10S FOG
 ***** THE ABOVE OBSERVATIONS ARE NON NWS ARE NOT QUALITY
       CONTROLLED AND MAY MIS-REPORT RAIN FOR SNOW...
$$

  *****  WEATHER ACROSS NORTHERN MINNESOTA  *****

CITY           SKY/WX    TMP DP  RH WIND       PRES   REMARKS
FLAG ISLAND    CLEAR     66  63  88 NW5       29.99F
WARROAD        CLEAR     63  57  82 W6        30.02S
ROSEAU         CLEAR     63  57  82 W7        30.02S
HALLOCK        CLEAR     63  57  82 W3        30.02S
THF RVR FALLS  CLEAR     61  57  88 CALM      30.04S
BAUDETTE       CLEAR     64  58  80 NW5       30.01F
WASKISH        CLEAR     66  61  82 W8        30.01S
CROOKSTON      CLEAR     61  57  88 CALM      30.04F
$$
  *****  WEATHER ACROSS CENTRAL AND WEST MINNESOTA  *****

CITY           SKY/WX    TMP DP  RH WIND       PRES   REMARKS
FOSSTON        CLEAR     54  52  94 S3        30.06S
BEMIDJI        CLEAR     60  54  81 W6        30.04S
PARK RAPIDS    CLEAR     55  53  93 CALM      30.05F
ELBOW LAKE     FAIR      59  56  89 SW3       30.06F
WADENA         CLEAR     54  52  94 W3        30.07S
DETROIT LAKES  CLEAR     61  59  94 CALM      30.08S
MOORHEAD       CLEAR     61  61 100 CALM      30.06S
FERGUS FALLS   CLEAR     61  55  82 CALM      30.06S
MORRIS MN      CLEAR     57  54  88 W3        30.06F
STAPLES        CLEAR     55  54  94 CALM      30.06S
$$
  *****  WEATHER ELSEWHERE ACROSS MINNESOTA  *****

CITY           SKY/WX    TMP DP  RH WIND       PRES   REMARKS
DULUTH         CLOUDY    63  56  78 NW3       30.00S
INTRNTL FALLS  CLEAR     53  52  96 CALM      29.99F
ELY            CLEAR     52  50  93 CALM      29.99F
CLOQUET        CLEAR     61  54  77 W6        30.01S
WHEATON        CLEAR     57  54  88 CALM      30.08F
BRAINERD       CLEAR     56  54  93 CALM      30.05S
HIBBING        PTCLDY    63  56  78 NW6       30.00F
ALEXANDRIA     PTCLDY    61  58  90 CALM      30.09S
SAINT CLOUD    CLEAR     60  54  80 CALM      30.05S
MINNEAPOLIS    CLEAR     67  59  75 W3        30.04S
$$

  *****  WEATHER ACROSS SOUTH DAKOTA  *****

CITY           SKY/WX    TMP DP  RH WIND       PRES   REMARKS
SIOUX FALLS    CLEAR     58  54  86 CALM      30.10S
BROOKINGS      NOT AVBL
WATERTOWN      CLEAR     58  53  84 CALM      30.10F
HURON          PTCLDY    62  57  83 SE3       30.08F
SISSETON         N/A     55  53  93 CALM      30.06F
ABERDEEN       MOCLDY    62  56  80 CALM      30.08F
MITCHELL       MOCLDY    68  57  68 S6        30.08F
PIERRE         PTCLDY    64  56  75 E7        30.06F
MOBRIDGE       MOCLDY    64  55  72 E6        30.08S
RAPID CITY     CLEAR     61  50  67 N8        30.17F
$$

  *****  SOME WEATHER IN NEARBY STATES *****

CITY           SKY/WX    TMP DP  RH WIND       PRES   REMARKS
GLASGOW MT     PTCLDY    67  49  52 E10       30.04F
GREAT FALLS MT CLEAR     64  45  49 N7        30.14R
CHEYENNE WY    CLOUDY    57  51  80 W6        30.33F
SCOTTSBLUFF NE MOCLDY    61  58  90 NE6       30.22F
OMAHA NE       PTCLDY    61  57  87 CALM      30.11F
DES MOINES IA  CLEAR     65  58  78 W3        30.09S
DAVENPORT IA   CLEAR     57  55  93 SW3       30.07S
CHICAGO IL     CLEAR     62  55  77 CALM      30.03F
EAU CLAIRE WI  CLEAR     61  59  93 SW5       30.01S
LA CROSSE WI   CLEAR     65  61  87 SE6       30.02S
$$

  *****  SOME NATIONAL WEATHER *****

CITY           SKY/WX    TMP DP  RH WIND       PRES   REMARKS
LA GUARDIA NY  PTCLDY    72  56  57 SW6       30.05R
RALEIGH NC     MOCLDY    70  63  78 CALM      30.09S
ATLANTA GA     MOCLDY    70  60  70 N3        30.05S
NEW ORLEANS LA CLEAR     76  60  57 E5        30.01S
OKLAHOMA CITY  CLOUDY    69  66  90 NE10      30.05S
ALBUQUERQUE NM MOCLDY    68  58  70 E22       30.24S
SALT LAKE CITY PTCLDY    68  56  65 N6        30.17F
LOS ANGELES CA CLEAR     69  64  84 W6        29.94S
BOISE ID       PTCLDY    78  47  33 SE16      30.11R
SEATTLE WA     CLEAR     69  46  43 NE13      30.11S
$$

*** WEATHER ACROSS MANITOBA...SASKATCHEWAN AND ONTARIO ***
                ***ONTARIO***

CITY           SKY/WX    TMP DP  RH WIND       PRES   REMARKS
GERALDTON      CLOUDY    55  50  82 NW3       29.91F
THUNDER BAY    PTCLDY    54  54 100 W5        29.93S
SIOUX LOOKOUT    N/A     52  52 100 N3        29.99S
TORONTO        MOCLDY    59  52  77 N5        29.97S
BIG TROUT LK   CLEAR     54  46  76 N7        29.97S
PICKLE LAKE    NOT AVBL
DRYDEN         CLEAR     57  57 100 NE2       30.00
KENORA         MOCLDY    64  52  63 N3        30.02S
$$
                *** MANITOBA***

CITY           SKY/WX    TMP DP  RH WIND       PRES   REMARKS
BRANDON        CLEAR     57  55  94 W5        30.08R
DAUPHIN        CLEAR     61  55  82 W8        30.06S
ISLAND LAKE    CLEAR     61  52  72 NE3       30.05S
PILOT MOUND      N/A     55  54  94 W3          N/A
THE PAS        CLEAR     64  57  77 S3        30.03S
THOMPSON       PTCLDY    63  54  72 E5        30.06R
WINNIPEG       MOCLDY    59  57  94 NW3       30.03S
LYNN LAKE      CLEAR     63  54  72 E3        30.06R
CHURCHILL      PTCLDY    50  46  87 SE7       30.12S
GILLAM         CLOUDY    54  50  87 CALM      30.10S
$$
                ***SASKATCHEWAN***

CITY           SKY/WX    TMP DP  RH WIND       PRES   REMARKS
ESTEVAN        MOCLDY    63  57  82 S2        30.12F
KINDERSLEY     PTCLDY    64  63  94 VRB2      30.02S
LLOYDMINSTER   CLEAR     63  59  88 E7        30.05R
PRINCE ALBERT  PTCLDY    57  57 100 NE3       30.07R
REGINA         CLEAR     64  57  77 SE10      30.08S
YORKTON        CLEAR     64  55  72 S7        30.09S
N. BATTLEFORD    N/A     63  59  88 E10       30.06S
LA RONGE       PTCLDY    59  55  88 CALM      30.06S
SASKATOON      PTCLDY    64  61  88 SE8       30.06S
SWIFT CURRENT  CLEAR     61  55  82 SE9       30.04S
$$
NOTE: THESE ARE AUTOMATED STATIONS WITH LIMITED QUALITY CONTROL
      "FAIR" INDICATES FEW OR NO CLOUDS BELOW 12,000 FEET WITH NO
      SIGNIFICANT WEATHER AND/OR OBSTRUCTIONS TO VISIBILITY.
      SKY/WX - SKY CONDITION AND SIGNIFICANT WEATHER.
      TMP - AIR TEMPERATURE.    DP   - DEWPOINT TEMPERATURE.
      RH  - RELATIVE HUMIDITY.  PRES - PRESSURE.
      HX  - HEAT INDEX.         WCI  - WIND CHILL INDEX.
$



USA.gov is the U.S. government's official web portal to all federal, state and local government web resources and services.